When you browse on this site, cookies collect data to enhance your experience and personalize the content and advertising you see.
Visit our Privacy Policy to learn more. By continuing to use the site, you agree to this use of cookies and data.
  • In United Kingdom
  • List of Countries
  • For 7 days
  • Water Temperature
  • Weather Map
  • Weather Widgets
  • user-avatar
    Login

    Hourly Weather Grabnowola

    Today, 31 May, Sunday

    Time Temperature Precipitation Wind Pressure Humidity
    00:00 +10°C° 2.9 mm 9 mps 745 mmHg 94%
    01:00 +10°C° 0 mm 8 mps 745 mmHg 92%
    02:00 +10°C° 0.4 mm 8 mps 745 mmHg 91%
    03:00 +11°C° 0.4 mm 8 mps 745 mmHg 90%
    04:00 +11°C° 0.4 mm 8 mps 744 mmHg 90%
    05:00 +11°C° 0.1 mm 7 mps 745 mmHg 88%
    06:00 +12°C° 0.1 mm 7 mps 745 mmHg 87%
    07:00 +12°C° 0 mm 7 mps 745 mmHg 86%
    08:00 +12°C° 0 mm 7 mps 746 mmHg 85%
    09:00 +14°C° 0 mm 7 mps 746 mmHg 83%
    10:00 +14°C° 0 mm 7 mps 746 mmHg 82%
    11:00 +14°C° 0.1 mm 7 mps 747 mmHg 81%
    12:00 +14°C° 0.1 mm 7 mps 747 mmHg 80%
    13:00 +15°C° 0 mm 6 mps 748 mmHg 81%
    14:00 +16°C° 0.1 mm 6 mps 748 mmHg 79%
    15:00 +16°C° 0.1 mm 6 mps 748 mmHg 77%
    16:00 +17°C° 0.1 mm 6 mps 748 mmHg 75%
    17:00 +16°C° 0.1 mm 6 mps 749 mmHg 78%
    18:00 +15°C° 0.1 mm 5 mps 749 mmHg 80%
    19:00 +15°C° 0.1 mm 4 mps 750 mmHg 82%
    20:00 +14°C° 0.1 mm 4 mps 750 mmHg 84%
    21:00 +13°C° 0.1 mm 4 mps 750 mmHg 86%
    22:00 +12°C° 0.1 mm 4 mps 750 mmHg 88%
    23:00 +11°C° 0 mm 4 mps 751 mmHg 88%

    Tomorrow, 1 June, Monday

    Time Temperature Precipitation Wind Pressure Humidity
    00:00 +11°C° 0 mm 4 mps 751 mmHg 88%
    01:00 +10°C° 0 mm 4 mps 752 mmHg 88%
    02:00 +10°C° 0 mm 4 mps 752 mmHg 86%
    03:00 +8°C° 0 mm 4 mps 752 mmHg 84%
    04:00 +8°C° 0 mm 4 mps 752 mmHg 82%
    05:00 +10°C° 0 mm 4 mps 752 mmHg 78%
    06:00 +11°C° 0 mm 4 mps 752 mmHg 74%
    07:00 +12°C° 0 mm 5 mps 753 mmHg 70%
    08:00 +13°C° 0 mm 5 mps 753 mmHg 65%
    09:00 +14°C° 0 mm 6 mps 753 mmHg 61%
    10:00 +15°C° 0 mm 6 mps 753 mmHg 56%
    11:00 +15°C° 0 mm 6 mps 753 mmHg 55%
    12:00 +15°C° 0 mm 7 mps 753 mmHg 55%
    13:00 +16°C° 0 mm 7 mps 753 mmHg 54%
    14:00 +15°C° 0 mm 7 mps 752 mmHg 54%
    15:00 +15°C° 0 mm 6 mps 752 mmHg 55%
    16:00 +14°C° 0 mm 6 mps 752 mmHg 56%
    17:00 +13°C° 0 mm 5 mps 752 mmHg 61%
    18:00 +13°C° 0 mm 4 mps 752 mmHg 67%
    19:00 +12°C° 0 mm 3 mps 752 mmHg 72%
    20:00 +11°C° 0.1 mm 3 mps 752 mmHg 77%
    21:00 +10°C° 0.1 mm 3 mps 752 mmHg 81%
    22:00 +9°C° 0.1 mm 3 mps 751 mmHg 85%
    23:00 +9°C° 0 mm 3 mps 751 mmHg 87%

    Day after tomorrow, 2 June, Tuesday

    Time Temperature Precipitation Wind Pressure Humidity
    00:00 +8°C° 0 mm 3 mps 751 mmHg 89%
    01:00 +8°C° 0 mm 3 mps 751 mmHg 91%
    02:00 +7°C° 0 mm 3 mps 750 mmHg 92%
    03:00 +7°C° 0 mm 3 mps 750 mmHg 93%
    04:00 +5°C° 0 mm 3 mps 750 mmHg 94%
    05:00 +7°C° 0 mm 4 mps 750 mmHg 86%
    06:00 +10°C° 0 mm 4 mps 750 mmHg 78%
    07:00 +12°C° 0 mm 5 mps 750 mmHg 70%
    08:00 +13°C° 0 mm 5 mps 749 mmHg 65%
    09:00 +14°C° 0 mm 6 mps 749 mmHg 59%
    10:00 +15°C° 0 mm 6 mps 748 mmHg 54%
    11:00 +16°C° 0 mm 7 mps 748 mmHg 54%
    12:00 +16°C° 0 mm 7 mps 748 mmHg 53%
    13:00 +17°C° 0 mm 7 mps 747 mmHg 52%
    14:00 +16°C° 0.1 mm 6 mps 747 mmHg 55%
    15:00 +16°C° 0.1 mm 6 mps 747 mmHg 58%
    16:00 +16°C° 0.1 mm 6 mps 746 mmHg 61%
    17:00 +15°C° 0.3 mm 5 mps 746 mmHg 66%
    18:00 +14°C° 0.3 mm 5 mps 746 mmHg 72%
    19:00 +12°C° 0.3 mm 4 mps 746 mmHg 78%
    20:00 +11°C° 0 mm 3 mps 746 mmHg 82%
    21:00 +10°C° 0 mm 3 mps 746 mmHg 85%
    22:00 +9°C° 0 mm 2 mps 746 mmHg 89%
    23:00 +9°C° 0 mm 3 mps 745 mmHg 91%

    3 June, Wednesday

    Time Temperature Precipitation Wind Pressure Humidity
    00:00 +8°C° 0 mm 3 mps 745 mmHg 92%
    01:00 +8°C° 0 mm 3 mps 745 mmHg 94%
    02:00 +8°C° 0 mm 3 mps 745 mmHg 94%
    03:00 +8°C° 0 mm 3 mps 745 mmHg 94%
    04:00 +7°C° 0 mm 3 mps 744 mmHg 94%
    05:00 +8°C° 0.1 mm 3 mps 744 mmHg 91%
    06:00 +9°C° 0.1 mm 3 mps 744 mmHg 89%
    07:00 +10°C° 0.1 mm 3 mps 744 mmHg 86%
    08:00 +10°C° 0.2 mm 3 mps 744 mmHg 84%
    09:00 +11°C° 0.2 mm 3 mps 744 mmHg 82%
    10:00 +11°C° 0.2 mm 3 mps 744 mmHg 80%
    11:00 +12°C° 0.2 mm 3 mps 743 mmHg 77%
    12:00 +13°C° 0.2 mm 3 mps 743 mmHg 75%
    13:00 +13°C° 0.2 mm 3 mps 743 mmHg 72%
    14:00 +14°C° 0.2 mm 3 mps 743 mmHg 70%
    15:00 +15°C° 0.2 mm 4 mps 742 mmHg 68%
    16:00 +15°C° 0.2 mm 4 mps 742 mmHg 66%
    17:00 +14°C° 0.2 mm 3 mps 742 mmHg 71%
    18:00 +14°C° 0.2 mm 3 mps 742 mmHg 77%
    19:00 +14°C° 0.2 mm 2 mps 742 mmHg 82%
    20:00 +13°C° 0 mm 2 mps 742 mmHg 85%
    21:00 +12°C° 0 mm 2 mps 742 mmHg 88%
    22:00 +9°C° 0 mm 2 mps 742 mmHg 91%
    23:00 +9°C° 0 mm 2 mps 742 mmHg 91%

    4 June, Thursday

    Time Temperature Precipitation Wind Pressure Humidity
    00:00 +9°C° 0 mm 2 mps 742 mmHg 92%
    01:00 +8°C° 0 mm 2 mps 742 mmHg 93%
    02:00 +8°C° 0 mm 2 mps 742 mmHg 93%
    03:00 +8°C° 0 mm 2 mps 742 mmHg 93%
    04:00 +8°C° 0 mm 2 mps 742 mmHg 93%
    05:00 +11°C° 0 mm 1 mps 742 mmHg 86%
    06:00 +13°C° 0 mm 1 mps 741 mmHg 79%
    07:00 +14°C° 0 mm 1 mps 741 mmHg 73%
    08:00 +16°C° 0 mm 1 mps 741 mmHg 65%
    09:00 +17°C° 0 mm 2 mps 741 mmHg 58%
    10:00 +19°C° 0 mm 2 mps 741 mmHg 51%
    11:00 +19°C° 0 mm 2 mps 740 mmHg 49%
    12:00 +20°C° 0 mm 2 mps 740 mmHg 47%
    13:00 +21°C° 0 mm 2 mps 739 mmHg 45%
    14:00 +21°C° 0 mm 3 mps 739 mmHg 49%
    15:00 +21°C° 0 mm 3 mps 739 mmHg 52%
    16:00 +22°C° 0 mm 3 mps 738 mmHg 56%
    17:00 +20°C° 0.2 mm 3 mps 738 mmHg 64%
    18:00 +19°C° 0.2 mm 3 mps 738 mmHg 72%
    19:00 +18°C° 0.2 mm 3 mps 737 mmHg 80%
    20:00 +17°C° 0.2 mm 3 mps 737 mmHg 83%
    21:00 +17°C° 0.2 mm 2 mps 737 mmHg 86%
    22:00 +16°C° 0.2 mm 2 mps 737 mmHg 90%
    23:00 +16°C° 0.4 mm 3 mps 737 mmHg 91%

    5 June, Friday

    Time Temperature Precipitation Wind Pressure Humidity
    00:00 +14°C° 0.4 mm 3 mps 736 mmHg 92%
    01:00 +14°C° 0.4 mm 4 mps 736 mmHg 93%
    02:00 +14°C° 0.8 mm 4 mps 736 mmHg 94%
    03:00 +14°C° 0.8 mm 4 mps 736 mmHg 94%
    04:00 +14°C° 0.8 mm 4 mps 737 mmHg 95%
    05:00 +14°C° 0 mm 5 mps 737 mmHg 92%
    06:00 +14°C° 0 mm 6 mps 738 mmHg 90%
    07:00 +14°C° 0 mm 6 mps 739 mmHg 87%
    08:00 +15°C° 0 mm 6 mps 739 mmHg 78%
    09:00 +16°C° 0 mm 6 mps 740 mmHg 69%
    10:00 +17°C° 0 mm 7 mps 740 mmHg 61%
    11:00 +17°C° 0 mm 7 mps 741 mmHg 59%
    12:00 +19°C° 0 mm 6 mps 741 mmHg 58%
    13:00 +19°C° 0 mm 6 mps 741 mmHg 57%
    14:00 +19°C° 0 mm 5 mps 741 mmHg 57%
    15:00 +20°C° 0 mm 4 mps 741 mmHg 58%
    16:00 +20°C° 0 mm 4 mps 741 mmHg 59%
    17:00 +19°C° 0 mm 3 mps 741 mmHg 63%
    18:00 +18°C° 0 mm 2 mps 741 mmHg 66%
    19:00 +19°C° 0 mm 1 mps 741 mmHg 70%
    20:00 +17°C° 0 mm 2 mps 741 mmHg 75%
    21:00 +16°C° 0 mm 3 mps 741 mmHg 79%
    22:00 +14°C° 0 mm 3 mps 742 mmHg 84%
    23:00 +14°C° 0 mm 3 mps 741 mmHg 87%
    Show more